When you browse on this site, cookies collect data to enhance your experience and personalize the content and advertising you see.
Visit our Privacy Policy to learn more. By continuing to use the site, you agree to this use of cookies and data.
  • In Hungary
  • List of Countries
  • For 7 days
  • Water Temperature
  • Weather Map
  • News
  • Weather Widgets
  • user-avatar
    Login

    Hourly Weather Szczucice

    Today, 15 September, Sunday

    Time Temperature Precipitation Wind Pressure Humidity
    00:00 +10°C° 0 mm 1 mps 748 mmHg 70%
    01:00 +10°C° 0 mm 1 mps 747 mmHg 71%
    02:00 +10°C° 0 mm 1 mps 747 mmHg 71%
    03:00 +9°C° 0 mm 1 mps 747 mmHg 72%
    04:00 +8°C° 0 mm 2 mps 746 mmHg 73%
    05:00 +9°C° 0 mm 2 mps 746 mmHg 71%
    06:00 +10°C° 0 mm 2 mps 746 mmHg 70%
    07:00 +12°C° 0 mm 2 mps 746 mmHg 68%
    08:00 +13°C° 0 mm 3 mps 745 mmHg 63%
    09:00 +15°C° 0 mm 4 mps 745 mmHg 58%
    10:00 +16°C° 0 mm 5 mps 744 mmHg 53%
    11:00 +17°C° 0 mm 5 mps 744 mmHg 50%
    12:00 +19°C° 0 mm 5 mps 743 mmHg 46%
    13:00 +20°C° 0 mm 5 mps 743 mmHg 43%
    14:00 +20°C° 0 mm 5 mps 742 mmHg 46%
    15:00 +20°C° 0 mm 4 mps 741 mmHg 48%
    16:00 +20°C° 0 mm 4 mps 741 mmHg 51%
    17:00 +19°C° 0 mm 4 mps 740 mmHg 56%
    18:00 +17°C° 0 mm 4 mps 740 mmHg 62%
    19:00 +15°C° 0 mm 4 mps 740 mmHg 67%
    20:00 +15°C° 0 mm 4 mps 740 mmHg 69%
    21:00 +15°C° 0 mm 4 mps 740 mmHg 71%
    22:00 +15°C° 0 mm 4 mps 739 mmHg 73%
    23:00 +14°C° 0 mm 4 mps 739 mmHg 76%

    Tomorrow, 16 September, Monday

    Time Temperature Precipitation Wind Pressure Humidity
    00:00 +13°C° 0 mm 4 mps 739 mmHg 79%
    01:00 +13°C° 0 mm 4 mps 739 mmHg 82%
    02:00 +13°C° 0 mm 4 mps 739 mmHg 83%
    03:00 +12°C° 0 mm 3 mps 739 mmHg 83%
    04:00 +12°C° 0 mm 3 mps 739 mmHg 83%
    05:00 +12°C° 0 mm 3 mps 738 mmHg 78%
    06:00 +13°C° 0 mm 4 mps 738 mmHg 73%
    07:00 +14°C° 0 mm 4 mps 738 mmHg 68%
    08:00 +14°C° 0 mm 4 mps 738 mmHg 68%
    09:00 +14°C° 0 mm 4 mps 738 mmHg 69%
    10:00 +15°C° 0 mm 4 mps 738 mmHg 69%
    11:00 +14°C° 0.3 mm 4 mps 738 mmHg 74%
    12:00 +14°C° 0.3 mm 4 mps 738 mmHg 80%
    13:00 +13°C° 0.3 mm 4 mps 737 mmHg 85%
    14:00 +13°C° 0.3 mm 4 mps 737 mmHg 87%
    15:00 +13°C° 0.3 mm 4 mps 737 mmHg 89%
    16:00 +12°C° 0.3 mm 3 mps 737 mmHg 91%
    17:00 +12°C° 0.1 mm 3 mps 736 mmHg 91%
    18:00 +12°C° 0.1 mm 3 mps 736 mmHg 92%
    19:00 +13°C° 0.1 mm 2 mps 736 mmHg 93%
    20:00 +13°C° 0.6 mm 2 mps 736 mmHg 93%
    21:00 +12°C° 0.6 mm 3 mps 736 mmHg 94%
    22:00 +12°C° 0.6 mm 3 mps 735 mmHg 94%
    23:00 +11°C° 0.5 mm 3 mps 735 mmHg 93%

    Day after tomorrow, 17 September, Tuesday

    Time Temperature Precipitation Wind Pressure Humidity
    00:00 +11°C° 0.5 mm 3 mps 735 mmHg 92%
    01:00 +11°C° 0.5 mm 4 mps 735 mmHg 91%
    02:00 +11°C° 0 mm 4 mps 735 mmHg 90%
    03:00 +10°C° 0 mm 3 mps 735 mmHg 89%
    04:00 +10°C° 0 mm 3 mps 735 mmHg 88%
    05:00 +10°C° 0 mm 4 mps 735 mmHg 84%
    06:00 +9°C° 0 mm 5 mps 736 mmHg 80%
    07:00 +9°C° 0 mm 5 mps 736 mmHg 76%
    08:00 +10°C° 0 mm 6 mps 736 mmHg 70%
    09:00 +11°C° 0 mm 6 mps 736 mmHg 64%
    10:00 +13°C° 0 mm 6 mps 736 mmHg 58%
    11:00 +12°C° 0 mm 7 mps 735 mmHg 58%
    12:00 +12°C° 0 mm 7 mps 735 mmHg 58%
    13:00 +12°C° 0 mm 7 mps 734 mmHg 57%
    14:00 +12°C° 0.1 mm 7 mps 734 mmHg 58%
    15:00 +12°C° 0.1 mm 7 mps 734 mmHg 58%
    16:00 +12°C° 0.1 mm 7 mps 733 mmHg 59%
    17:00 +11°C° 0.2 mm 7 mps 733 mmHg 65%
    18:00 +10°C° 0.2 mm 6 mps 733 mmHg 72%
    19:00 +8°C° 0.2 mm 6 mps 733 mmHg 78%
    20:00 +8°C° 0.1 mm 6 mps 734 mmHg 79%
    21:00 +7°C° 0.1 mm 6 mps 734 mmHg 79%
    22:00 +7°C° 0.1 mm 5 mps 734 mmHg 79%
    23:00 +5°C° 0 mm 6 mps 734 mmHg 81%

    18 September, Wednesday

    Time Temperature Precipitation Wind Pressure Humidity
    00:00 +5°C° 0 mm 6 mps 734 mmHg 82%
    01:00 +4°C° 0 mm 6 mps 734 mmHg 83%
    02:00 +4°C° 0 mm 7 mps 735 mmHg 82%
    03:00 +4°C° 0 mm 7 mps 735 mmHg 82%
    04:00 +4°C° 0 mm 7 mps 735 mmHg 81%
    05:00 +5°C° 0 mm 7 mps 736 mmHg 79%
    06:00 +5°C° 0 mm 7 mps 736 mmHg 77%
    07:00 +5°C° 0 mm 8 mps 737 mmHg 76%
    08:00 +6°C° 0 mm 7 mps 737 mmHg 73%
    09:00 +8°C° 0 mm 7 mps 738 mmHg 69%
    10:00 +8°C° 0 mm 7 mps 739 mmHg 66%
    11:00 +9°C° 0 mm 7 mps 739 mmHg 63%
    12:00 +10°C° 0 mm 7 mps 739 mmHg 59%
    13:00 +11°C° 0 mm 7 mps 739 mmHg 56%
    14:00 +11°C° 0 mm 7 mps 739 mmHg 55%
    15:00 +11°C° 0 mm 6 mps 739 mmHg 55%
    16:00 +11°C° 0 mm 6 mps 739 mmHg 54%
    17:00 +9°C° 0 mm 5 mps 739 mmHg 61%
    18:00 +8°C° 0 mm 5 mps 739 mmHg 67%
    19:00 +7°C° 0 mm 4 mps 739 mmHg 74%
    20:00 +6°C° 0 mm 4 mps 740 mmHg 77%
    21:00 +7°C° 0 mm 3 mps 740 mmHg 79%
    22:00 +7°C° 0 mm 3 mps 740 mmHg 82%
    23:00 +7°C° 0.1 mm 3 mps 740 mmHg 83%

    19 September, Thursday

    Time Temperature Precipitation Wind Pressure Humidity
    00:00 +5°C° 0.1 mm 3 mps 740 mmHg 85%
    01:00 +5°C° 0.1 mm 3 mps 740 mmHg 86%
    02:00 +5°C° 0.1 mm 3 mps 740 mmHg 87%
    03:00 +4°C° 0.1 mm 3 mps 740 mmHg 89%
    04:00 +4°C° 0.1 mm 3 mps 740 mmHg 90%
    05:00 +5°C° 0.1 mm 3 mps 740 mmHg 88%
    06:00 +5°C° 0.1 mm 3 mps 740 mmHg 86%
    07:00 +6°C° 0.1 mm 4 mps 740 mmHg 83%
    08:00 +7°C° 0.1 mm 4 mps 741 mmHg 76%
    09:00 +10°C° 0.1 mm 4 mps 741 mmHg 69%
    10:00 +12°C° 0.1 mm 4 mps 741 mmHg 62%
    11:00 +12°C° 0.3 mm 4 mps 741 mmHg 58%
    12:00 +13°C° 0.3 mm 5 mps 741 mmHg 55%
    13:00 +13°C° 0.3 mm 5 mps 741 mmHg 51%
    14:00 +13°C° 0.1 mm 5 mps 741 mmHg 52%
    15:00 +13°C° 0.1 mm 5 mps 741 mmHg 53%
    16:00 +12°C° 0.1 mm 4 mps 741 mmHg 53%
    17:00 +11°C° 0.1 mm 4 mps 741 mmHg 61%
    18:00 +9°C° 0.1 mm 3 mps 741 mmHg 69%
    19:00 +7°C° 0.1 mm 3 mps 742 mmHg 77%
    20:00 +7°C° 0.2 mm 2 mps 742 mmHg 79%
    21:00 +7°C° 0.2 mm 2 mps 742 mmHg 81%
    22:00 +7°C° 0.2 mm 2 mps 743 mmHg 83%
    23:00 +7°C° 0.1 mm 2 mps 743 mmHg 83%

    20 September, Friday

    Time Temperature Precipitation Wind Pressure Humidity
    00:00 +5°C° 0.1 mm 3 mps 743 mmHg 83%
    01:00 +5°C° 0.1 mm 3 mps 743 mmHg 83%
    02:00 +4°C° 0 mm 3 mps 743 mmHg 85%
    03:00 +3°C° 0 mm 3 mps 743 mmHg 87%
    04:00 +1°C° 0 mm 4 mps 743 mmHg 88%
    05:00 +2°C° 0 mm 5 mps 744 mmHg 86%
    06:00 +3°C° 0 mm 5 mps 744 mmHg 85%
    07:00 +4°C° 0 mm 6 mps 744 mmHg 83%
    08:00 +5°C° 0 mm 6 mps 745 mmHg 74%
    09:00 +7°C° 0 mm 6 mps 745 mmHg 65%
    10:00 +9°C° 0 mm 6 mps 746 mmHg 57%
    11:00 +10°C° 0 mm 6 mps 746 mmHg 52%
    12:00 +10°C° 0 mm 5 mps 746 mmHg 48%
    13:00 +12°C° 0 mm 5 mps 745 mmHg 43%
    14:00 +12°C° 0.1 mm 5 mps 745 mmHg 47%
    15:00 +12°C° 0.1 mm 5 mps 745 mmHg 51%
    16:00 +11°C° 0.1 mm 4 mps 745 mmHg 56%
    17:00 +10°C° 0 mm 4 mps 745 mmHg 61%
    18:00 +8°C° 0 mm 3 mps 746 mmHg 66%
    19:00 +7°C° 0 mm 3 mps 746 mmHg 71%
    20:00 +5°C° 0 mm 3 mps 746 mmHg 72%
    21:00 +6°C° 0 mm 2 mps 746 mmHg 72%
    22:00 +5°C° 0 mm 2 mps 746 mmHg 73%
    23:00 +4°C° 0 mm 3 mps 746 mmHg 73%
    Show more